Location: Asbacherhof
(48.8543°N, 10.7903°E)
Time: 23:14:44
(UTC+00:00)

Cosmos 1455 - Pass Details

Date: 26 May 2022
Orbit: 492 x 515 km, 82.5° (Epoch: 26 June)

Event Time Altitude Azimuth Distance (km) Brightness Sun altitude
Rises 02:20:00 0° 334° (NNW) 2,586 6.0 -8.7°
Reaches altitude 10° 02:22:43 10° 313° (NW) 1,696 4.8 -8.4°
Maximum altitude 02:25:03 16° 274° (W) 1,350 3.9 -8.1°
Enters shadow 02:27:22 10° 234° (SW) 1,686 4.1 -7.8°
